"2010-11-12 00:00:00",328621,3.343,54.21,7.552,1.115,-0.761,98.62132,-4.212,-3.165,97.6,0,109.3,13.69,-3.48,16.2
"2010-11-12 00:00:30",328622,3.891,53.35,6.22,1.232,0.218,98.62103,-4.213,-3.101,97.6,0,109.3,13.68,-3.48,15.3
"2010-11-12 00:01:00",328623,4.534,58.95,5.104,0.925,1.361,98.62217,-4.21,-3.108,97.6,0,109.3,13.68,-3.47,21.0
"2010-11-12 00:01:30",328624,4.751,61.39,4.39,0.92,2.138,98.62019,-4.215,-3.087,97.7,0,109.3,13.68,-3.48,23.4
"2010-11-12 00:02:00",328625,4.611,56.46,6.125,1.087,1.361,98.62046,-4.215,-3.125,97.6,0,109.3,13.68,-3.48,18.5
"2010-11-12 00:02:30",328626,4.311,57.57,5.805,1.146,0.569,98.62244,-4.21,-3.131,97.6,0,109.3,13.68,-3.47,19.6
"2010-11-12 00:03:00",328627,4.139,59.55,5.01,1.105,1.196,98.62415,-4.205,-3.107,97.7,0,109.3,13.68,-3.47,21.5
"2010-11-12 00:03:30",328628,4.378,59.28,6.519,1.008,0.772,98.6284,-4.194,-3.146,97.6,0,109.3,13.68,-3.46,21.3
"2010-11-12 00:04:00",328629,4.079,56.96,6.294,1.159,0.656,98.63634,-4.174,-3.12,97.7,0,109.3,13.69,-3.44,19.0
"2010-11-12 00:04:30",328630,4.421,61.38,5.348,0.975,1.804,98.63889,-4.168,-3.109,97.7,0,109.3,13.69,-3.43,23.4
"2010-11-12 00:05:00",328631,4.884,57.78,6.171,1.039,1.204,98.63945,-4.166,-3.089,97.7,0,109.3,13.69,-3.43,19.8
"2010-11-12 00:05:30",328632,4.472,57.01,6.637,1.108,0.992,98.63945,-4.166,-3.092,97.7,0,109.3,13.69,-3.43,19.0
"2010-11-12 00:06:00",328633,4.156,56.45,7.006,1.202,-0.061,98.63945,-4.166,-3.137,97.7,0,109.3,13.69,-3.43,18.5
"2010-11-12 00:06:30",328634,4.515,56.54,6.052,1.238,0.916,98.63945,-4.166,-3.068,97.7,0,109.3,13.69,-3.43,18.5
"2010-11-12 00:07:00",328635,4.979,55.26,4.533,1.168,1.09,98.63945,-4.166,-3.061,97.7,0,109.3,13.69,-3.43,17.3
"2010-11-12 00:07:30",328636,5.245,55.9,6.404,1.015,1.692,98.63945,-4.166,-3.042,97.8,0,109.3,13.69,-3.43,17.9
"2010-11-12 00:08:00",328637,4.732,54.5,5.226,1.096,1.476,98.63945,-4.166,-3.07,97.7,0,109.3,13.69,-3.43,16.5
"2010-11-12 00:08:30",328638,4.912,53.14,5.818,1.097,1.089,98.63945,-4.166,-3.104,97.7,0,109.3,13.69,-3.43,15.1
"2010-11-12 00:09:00",328639,5.728,50.89,5.157,0.92,1.914,98.63605,-4.175,-3.052,97.7,0,109.3,13.69,-3.44,12.9
"2010-11-12 00:09:30",328640,5.135,47.09,6.236,1.213,0.353,98.61394,-4.231,-3.134,97.7,0,109.3,13.69,-3.49,9.1
"2010-11-12 00:10:00",328641,5.791,51.53,4.588,0.882,2.111,98.60545,-4.253,-3.037,97.8,0,109.3,13.69,-3.52,13.5
"2010-11-12 00:10:30",328642,5.838,49.26,4.865,0.964,2.305,98.589,-4.295,-3.07,97.7,0,109.3,13.69,-3.56,11.3
"2010-11-12 00:11:00",328643,5.248,46.92,5.726,1.06,1.658,98.57142,-4.34,-3.171,97.6,0,109.3,13.69,-3.60,8.9
"2010-11-12 00:11:30",328644,5.828,50.42,4.555,0.909,1.966,98.55981,-4.369,-3.22,97.6,0,109.3,13.69,-3.63,12.4
"2010-11-12 00:12:00",328645,5.304,48.41,5.748,1.127,1.185,98.54478,-4.407,-3.214,97.6,0,109.3,13.69,-3.67,10.4
"2010-11-12 00:12:30",328646,5.255,49.23,4.98,1.008,1.323,98.5394,-4.421,-3.23,97.6,0,109.3,13.69,-3.68,11.2
"2010-11-12 00:13:00",328647,5.586,50.37,3.343,0.693,1.932,98.53798,-4.425,-3.161,97.6,0,109.3,13.69,-3.69,12.4
"2010-11-12 00:13:30",328648,4.973,49.25,5.372,1.07,1.177,98.5377,-4.425,-3.229,97.5,0,109.3,13.69,-3.69,11.2
"2010-11-12 00:14:00",328649,5.032,47.88,4.976,1.013,1.341,98.5411,-4.417,-3.266,97.5,0,109.3,13.69,-3.68,9.9
"2010-11-12 00:14:30",328650,4.548,43.84,5.661,1.095,0.696,98.53741,-4.426,-3.355,97.4,0,109.3,13.69,-3.69,5.8
"2010-11-12 00:15:00",328651,4.739,47.19,5.08,1.09,1.379,98.53826,-4.424,-3.232,97.6,0,109.3,13.69,-3.69,9.2
"2010-11-12 00:15:30",328652,5.054,46.85,5.829,1.088,1.252,98.53996,-4.42,-3.254,97.6,0,109.3,13.69,-3.68,8.8
"2010-11-12 00:16:00",328653,5.25,48.77,3.728,0.912,1.354,98.53741,-4.426,-3.26,97.6,0,109.3,13.69,-3.69,10.8
"2010-11-12 00:16:30",328654,4.783,45.13,5.97,1.076,1.266,98.5394,-4.421,-3.215,97.6,0,109.3,13.69,-3.68,7.1
"2010-11-12 00:17:00",328655,4.121,43.81,5.672,1.191,0.353,98.53883,-4.423,-3.307,97.5,0,109.3,13.68,-3.69,5.8
"2010-11-12 00:17:30",328656,4.515,45.95,4.759,1.159,1.075,98.54337,-4.411,-3.258,97.6,0,109.3,13.69,-3.67,8.0
"2010-11-12 00:18:00",328657,4.885,47.08,5.752,1.052,1.378,98.54591,-4.404,-3.244,97.6,0,109.3,13.68,-3.67,9.1
"2010-11-12 00:18:30",328658,5.193,49.48,4.116,0.893,1.964,98.54762,-4.4,-3.184,97.6,0,109.3,13.69,-3.66,11.5
"2010-11-12 00:19:00",328659,4.798,46.42,5.392,1.09,0.626,98.55244,-4.388,-3.304,97.5,0,109.3,13.69,-3.65,8.4
"2010-11-12 00:19:30",328660,4.46,44.7,5.684,1.17,0.584,98.55186,-4.389,-3.21,97.6,0,109.3,13.69,-3.65,6.7
"2010-11-12 00:20:00",328661,4.954,48.56,5.027,0.835,1.308,98.55895,-4.371,-3.293,97.5,0,109.3,13.69,-3.63,10.6
"2010-11-12 00:20:30",328662,4.269,49.37,6.181,1.174,0.726,98.56973,-4.344,-3.237,97.6,0,109.3,13.69,-3.61,11.4
"2010-11-12 00:21:00",328663,4.594,53.12,4.394,0.884,1.441,98.57142,-4.34,-3.243,97.6,0,109.3,13.69,-3.60,15.1
"2010-11-12 00:21:30",328664,4.454,49.69,5.555,1.015,1.182,98.57142,-4.34,-3.22,97.6,0,109.3,13.69,-3.60,11.7
"2010-11-12 00:22:00",328665,4.193,49.89,6.522,1.052,0.772,98.57142,-4.34,-3.236,97.6,0,109.3,13.69,-3.60,11.9
"2010-11-12 00:22:30",328666,3.494,46.06,5.74,1.153,0.124,98.57822,-4.322,-3.151,97.7,0,109.3,13.69,-3.59,8.1
"2010-11-12 00:23:00",328667,4.327,47.41,5.203,1.058,1.243,98.589,-4.295,-3.229,97.6,0,109.3,13.7,-3.56,9.4
"2010-11-12 00:23:30",328668,4.214,48.14,5.445,1.11,0.888,98.59127,-4.289,-3.238,97.6,0,109.3,13.7,-3.55,10.1
"2010-11-12 00:24:00",328669,4.231,49.94,5.318,0.969,1.66,98.59183,-4.288,-3.145,97.7,0,109.3,13.7,-3.55,11.9
"2010-11-12 00:24:30",328670,4.073,47.54,4.953,1.068,0.739,98.58842,-4.296,-3.22,97.6,0,109.3,13.7,-3.56,9.5
"2010-11-12 00:25:00",328671,3.6,44.68,5.914,1.189,-0.187,98.59013,-4.292,-3.186,97.6,0,109.3,13.7,-3.55,6.7
"2010-11-12 00:25:30",328672,3.012,39.81,6.433,1.139,-0.774,98.58814,-4.297,-3.214,97.6,0,109.3,13.7,-3.56,1.8
"2010-11-12 00:26:00",328673,3.922,44.18,5.699,1.103,0.951,98.58644,-4.301,-3.155,97.6,0,109.3,13.7,-3.56,6.2
"2010-11-12 00:26:30",328674,4.375,44.78,6.294,1.101,0.963,98.58531,-4.304,-3.219,97.6,0,109.3,13.7,-3.57,6.8
"2010-11-12 00:27:00",328675,4.105,48.72,6.969,1.109,0.948,98.58163,-4.314,-3.112,97.7,0,109.3,13.7,-3.58,10.7
"2010-11-12 00:27:30",328676,4.38,46.52,5.524,0.99,0.777,98.57879,-4.321,-3.178,97.6,0,109.3,13.7,-3.58,8.5
"2010-11-12 00:28:00",328677,3.943,43.25,6.357,1.191,0.115,98.57142,-4.34,-3.231,97.6,0,109.3,13.7,-3.60,5.2
"2010-11-12 00:28:30",328678,3.964,43.12,5.823,1.141,0.586,98.57142,-4.34,-3.182,97.6,0,109.3,13.7,-3.60,5.1
"2010-11-12 00:29:00",328679,3.67,40.54,6.436,1.248,0.356,98.57142,-4.34,-3.227,97.6,0,109.3,13.7,-3.60,2.5
"2010-11-12 00:29:30",328680,4.153,42.39,4.658,0.933,1.376,98.57142,-4.34,-3.215,97.6,0,109.3,13.7,-3.60,4.4
"2010-11-12 00:30:00",328681,3.793,41,5.889,1.124,0.702,98.57142,-4.34,-3.22,97.6,0,109.3,13.7,-3.60,3.0
"2010-11-12 00:30:30",328682,3.621,38.92,5.919,1.128,0.522,98.57142,-4.34,-3.233,97.6,0,109.3,13.7,-3.60,0.9
"2010-11-12 00:31:00",328683,2.908,34.77,5.966,1.092,-1.436,98.57114,-4.34,-3.341,97.5,0,109.3,13.7,-3.60,356.8
"2010-11-12 00:31:30",328684,3.491,37.58,6.48,1.121,-0.014,98.57142,-4.34,-3.207,97.6,0,109.3,13.69,-3.60,359.6
"2010-11-12 00:32:00",328685,3.873,39.23,5.547,1.021,0.821,98.57142,-4.34,-3.204,97.6,0,109.3,13.69,-3.60,1.2
"2010-11-12 00:32:30",328686,3.942,41.43,5.023,0.934,0.937,98.57142,-4.34,-3.243,97.6,0,109.3,13.69,-3.60,3.4
"2010-11-12 00:33:00",328687,3.486,37.66,6.169,1.117,0.161,98.56831,-4.347,-3.298,97.5,0,109.4,13.69,-3.61,359.7
"2010-11-12 00:33:30",328688,3.352,37.7,5.863,1.245,-0.173,98.56178,-4.364,-3.203,97.6,0,109.3,13.69,-3.63,359.7
"2010-11-12 00:34:00",328689,4.129,42.98,6.109,0.992,-0.098,98.55583,-4.379,-3.406,97.4,0,109.3,13.69,-3.64,5.0
"2010-11-12 00:34:30",328690,4.065,43.51,5.753,1.157,0.269,98.55074,-4.392,-3.242,97.6,0,109.3,13.69,-3.66,5.5
"2010-11-12 00:35:00",328691,4.245,43.17,5.442,0.938,1.01,98.54762,-4.4,-3.296,97.5,0,109.3,13.69,-3.66,5.2
"2010-11-12 00:35:30",328692,4.025,45.04,5.603,1.072,0.883,98.54563,-4.405,-3.202,97.6,0,109.3,13.69,-3.67,7.0
"2010-11-12 00:36:00",328693,4.246,45.41,5.483,1.033,0.561,98.5445,-4.408,-3.245,97.5,0,109.3,13.69,-3.67,7.4
"2010-11-12 00:36:30",328694,3.902,43.68,5.087,1.04,-0.164,98.5462,-4.404,-3.329,97.5,0,109.3,13.7,-3.67,5.7
"2010-11-12 00:37:00",328695,2.791,38.15,5.531,0.953,-1.804,98.54903,-4.397,-3.428,97.4,0,109.3,13.7,-3.66,0.2
"2010-11-12 00:37:30",328696,3.733,42.73,5.333,1.112,0.503,98.5479,-4.399,-3.228,97.5,0,109.3,13.7,-3.66,4.7
"2010-11-12 00:38:00",328697,3.736,40.9,6.132,1.085,1.015,98.55102,-4.391,-3.231,97.5,0,109.3,13.7,-3.65,2.9
"2010-11-12 00:38:30",328698,3.435,37.6,6.089,1.148,0.516,98.55413,-4.384,-3.237,97.5,0,109.3,13.7,-3.65,359.6
"2010-11-12 00:39:00",328699,3.338,37.17,5.974,1.137,0.564,98.56321,-4.36,-3.224,97.6,0,109.3,13.7,-3.62,359.2
"2010-11-12 00:39:30",328700,2.366,30.82,5.5,0.926,-1.51,98.56292,-4.361,-3.262,97.5,0,109.3,13.7,-3.62,352.8
"2010-11-12 00:40:00",328701,3.32,35.97,7.392,1.295,0.074,98.56348,-4.36,-3.273,97.5,0,109.3,13.7,-3.62,358.0
"2010-11-12 00:40:30",328702,3.607,36.06,7.372,1.094,-0.247,98.57029,-4.342,-3.278,97.5,0,109.3,13.7,-3.61,358.1
"2010-11-12 00:41:00",328703,3.73,35.45,7.854,1.21,0.53,98.57085,-4.341,-3.205,97.6,0,109.3,13.7,-3.60,357.5
"2010-11-12 00:41:30",328704,3.464,36.11,5.7,1.09,0.786,98.57142,-4.34,-3.234,97.6,0,109.3,13.7,-3.60,358.1
"2010-11-12 00:42:00",328705,3.216,35.17,7.484,1.095,-0.003,98.57085,-4.341,-3.251,97.5,0,109.3,13.7,-3.60,357.2
"2010-11-12 00:42:30",328706,2.852,35.63,7.005,1.083,-1.746,98.57142,-4.34,-3.254,97.5,0,109.3,13.7,-3.60,357.6
"2010-11-12 00:43:00",328707,3.297,37.83,6.915,1.196,-0.315,98.57114,-4.34,-3.341,97.4,0,109.3,13.7,-3.60,359.8
"2010-11-12 00:43:30",328708,3.71,39.83,6.537,1.256,0.27,98.57142,-4.34,-3.297,97.5,0,109.3,13.7,-3.60,1.8
"2010-11-12 00:44:00",328709,4.137,40.02,6.197,1.058,0.682,98.57085,-4.341,-3.215,97.5,0,109.3,13.7,-3.60,2.0
"2010-11-12 00:44:30",328710,3.505,34.55,8.19,1.159,0.287,98.56123,-4.365,-3.229,97.5,0,109.3,13.7,-3.63,356.5
"2010-11-12 00:45:00",328711,3.033,33.89,9.28,1.351,-0.552,98.55357,-4.385,-3.356,97.4,0,109.3,13.7,-3.65,355.9
"2010-11-12 00:45:30",328712,2.853,33.23,7.612,1.145,-0.699,98.553,-4.386,-3.23,97.5,0,109.3,13.7,-3.65,355.2
"2010-11-12 00:46:00",328713,3.669,37.34,5.734,1.177,0.089,98.55215,-4.389,-3.301,97.4,0,109.3,13.7,-3.65,359.3
"2010-11-12 00:46:30",328714,2.555,34.8,7.209,1.155,-0.716,98.55328,-4.386,-3.258,97.5,0,109.3,13.7,-3.65,356.8
"2010-11-12 00:47:00",328715,3.354,36.68,7.429,1.21,0.595,98.55923,-4.371,-3.235,97.5,0,109.3,13.7,-3.63,358.7
"2010-11-12 00:47:30",328716,3.186,37.58,5.52,1.095,0.648,98.57085,-4.341,-3.272,97.5,0,109.3,13.7,-3.60,359.6
"2010-11-12 00:48:00",328717,1.991,29.44,5.464,0.787,-2.187,98.57142,-4.34,-3.282,97.5,0,109.3,13.7,-3.60,351.4
"2010-11-12 00:48:30",328718,3.432,36.15,6.151,1.005,0.225,98.57142,-4.34,-3.248,97.5,0,109.3,13.7,-3.60,358.1
"2010-11-12 00:49:00",328719,2.652,33.43,7.32,1.29,-1.492,98.57142,-4.34,-3.339,97.4,0,109.3,13.7,-3.60,355.4
"2010-11-12 00:49:30",328720,3.026,36.65,7.113,1.275,-0.336,98.57142,-4.34,-3.162,97.6,0,109.3,13.7,-3.60,358.6
"2010-11-12 00:50:00",328721,3.327,38.52,5.985,1.137,0.388,98.57142,-4.34,-3.258,97.5,0,109.3,13.7,-3.60,0.5
"2010-11-12 00:50:30",328722,3.026,33.49,5.086,1.233,-0.467,98.57142,-4.34,-3.227,97.5,0,109.3,13.7,-3.60,355.5
"2010-11-12 00:51:00",328723,2.823,30.7,6.396,1.106,-1.336,98.57142,-4.34,-3.323,97.4,0,109.3,13.7,-3.60,352.7
"2010-11-12 00:51:30",328724,3.12,34.74,6.708,1.336,-0.147,98.57142,-4.34,-3.195,97.5,0,109.3,13.7,-3.60,356.7
"2010-11-12 00:52:00",328725,2.963,34.21,9.36,1.261,-0.22,98.57142,-4.34,-3.199,97.6,0,109.2,13.7,-3.60,356.2
"2010-11-12 00:52:30",328726,2.663,32.67,6.345,1.136,-0.649,98.57142,-4.34,-3.214,97.5,0,109.3,13.7,-3.60,354.7
"2010-11-12 00:53:00",328727,3.016,34.08,5.776,1.153,0.351,98.57142,-4.34,-3.182,97.6,0,109.3,13.7,-3.60,356.1
"2010-11-12 00:53:30",328728,2.402,29.8,5.951,1.243,-1.178,98.57142,-4.34,-3.363,97.4,0,109.3,13.7,-3.60,351.8
"2010-11-12 00:54:00",328729,2.222,29.15,6.417,1.132,-1.422,98.57142,-4.34,-3.297,97.4,0,109.3,13.71,-3.60,351.1
"2010-11-12 00:54:30",328730,3.335,31.4,5.771,1.168,0.3,98.57227,-4.337,-3.204,97.6,0,109.3,13.71,-3.60,353.4
"2010-11-12 00:55:00",328731,3.079,28.36,5.877,1.246,-0.537,98.5717,-4.339,-3.187,97.6,0,109.3,13.71,-3.60,350.4
"2010-11-12 00:55:30",328732,3.326,28.33,6.449,1.176,0.658,98.57142,-4.34,-3.197,97.5,0,109.3,13.71,-3.60,350.3
"2010-11-12 00:56:00",328733,2.787,27.98,6.682,1.195,-0.137,98.57142,-4.34,-3.197,97.6,0,109.3,13.71,-3.60,350.0
"2010-11-12 00:56:30",328734,2.311,21.02,6.036,1.033,-1.842,98.57142,-4.34,-3.386,97.3,0,109.3,13.71,-3.60,343.0
"2010-11-12 00:57:00",328735,2.475,20.47,6.537,0.927,-1.782,98.57142,-4.34,-3.266,97.5,0,109.3,13.71,-3.60,342.5
"2010-11-12 00:57:30",328736,2.96,24.48,7.196,1.126,-0.174,98.57142,-4.34,-3.221,97.5,0,109.3,13.71,-3.60,346.5
"2010-11-12 00:58:00",328737,2.826,24.02,9.47,1.289,0.452,98.57142,-4.34,-3.141,97.6,0,109.3,13.71,-3.60,346.0
"2010-11-12 00:58:30",328738,2.221,21.37,9.2,1.241,-0.447,98.5717,-4.339,-3.268,97.5,0,109.3,13.71,-3.60,343.4
"2010-11-12 00:59:00",328739,2.494,25.51,7.335,1.142,0.222,98.57455,-4.332,-3.164,97.6,0,109.3,13.71,-3.59,347.5
"2010-11-12 00:59:30",328740,1.482,14.72,9.86,1.267,-1.441,98.57568,-4.329,-3.407,97.3,0,109.3,13.71,-3.59,336.7
"2010-11-12 01:00:00",328741,1.725,17.89,8.04,1.25,-1.135,98.57964,-4.319,-3.356,97.4,0,109.3,13.71,-3.58,339.9
"2010-11-12 01:00:30",328742,1.905,22.02,6.457,1.213,-1.438,98.58106,-4.315,-3.237,97.5,0,109.3,13.71,-3.58,344.0
"2010-11-12 01:01:00",328743,2.114,22.7,7.202,1.21,-0.871,98.58276,-4.311,-3.174,97.6,0,109.3,13.71,-3.57,344.7
"2010-11-12 01:01:30",328744,3.298,25.01,9.49,1.207,0.444,98.58474,-4.306,-3.177,97.6,0,109.3,13.71,-3.57,347.0
"2010-11-12 01:02:00",328745,3.359,17.73,11.74,1.075,0.312,98.57964,-4.319,-3.222,97.5,0,109.3,13.71,-3.58,339.7
"2010-11-12 01:02:30",328746,1.438,9.77,17.42,1.383,-1.458,98.57851,-4.321,-3.302,97.4,0,109.3,13.71,-3.58,331.8
"2010-11-12 01:03:00",328747,0.902,7.69,8.18,0.867,-2.102,98.58248,-4.311,-3.332,97.4,0,109.3,13.71,-3.57,329.7
"2010-11-12 01:03:30",328748,1.837,14.73,17.21,1.262,-1.672,98.58672,-4.301,-3.297,97.4,0,109.3,13.71,-3.56,336.7
"2010-11-12 01:04:00",328749,0.584,1.504,14.77,0.81,-2.551,98.58758,-4.298,-3.276,97.5,0,109.3,13.71,-3.56,323.5
"2010-11-12 01:04:30",328750,1.816,9.55,9.54,1.211,-0.877,98.5941,-4.282,-3.327,97.4,0,109.3,13.71,-3.54,331.5
"2010-11-12 01:05:00",328751,1.884,5.582,10.64,1.212,-0.508,98.60261,-4.26,-3.165,97.6,0,109.3,13.71,-3.52,327.6
"2010-11-12 01:05:30",328752,2.06,6.948,10.54,1.145,0.572,98.60545,-4.253,-3.139,97.6,0,109.3,13.71,-3.52,328.9
"2010-11-12 01:06:00",328753,0.808,10.51,17.33,0.946,-2.374,98.60545,-4.253,-3.359,97.4,0,109.3,13.71,-3.52,332.5
"2010-11-12 01:06:30",328754,1.295,8.7,10.82,1.226,-1.392,98.60545,-4.253,-3.227,97.5,0,109.3,13.71,-3.52,330.7
"2010-11-12 01:07:00",328755,1.171,1.258,16.67,0.895,-2.515,98.60545,-4.253,-3.235,97.5,0,109.3,13.71,-3.52,323.3
"2010-11-12 01:07:30",328756,1.508,1.696,15.45,1.155,-2.367,98.60545,-4.253,-3.372,97.4,0,109.3,13.71,-3.52,323.7
"2010-11-12 01:08:00",328757,1.729,4.604,10.51,1.314,-1.351,98.60545,-4.253,-3.187,97.6,0,109.3,13.71,-3.52,326.6
"2010-11-12 01:08:30",328758,2.842,8.09,9.08,1.06,0.73,98.60545,-4.253,-3.153,97.6,0,109.3,13.71,-3.52,330.1
"2010-11-12 01:09:00",328759,1.994,7.161,10.22,1.286,0.172,98.60545,-4.253,-3.137,97.6,0,109.3,13.71,-3.52,329.2
"2010-11-12 01:09:30",328760,1.829,8.43,12.36,1.156,0.459,98.60545,-4.253,-3.118,97.6,0,109.3,13.71,-3.52,330.4
"2010-11-12 01:10:00",328761,1.098,4.175,13.5,1.061,-2.154,98.60545,-4.253,-3.281,97.5,0,109.3,13.71,-3.52,326.2
"2010-11-12 01:10:30",328762,1.445,359,11.56,1.286,-1.576,98.60545,-4.253,-3.269,97.5,0,109.3,13.71,-3.52,321.0
"2010-11-12 01:11:00",328763,0.47,8.33,14.9,0.242,-3.62,98.60545,-4.253,-3.342,97.4,0,109.3,13.75,-3.52,330.3
"2010-11-12 01:11:30",328764,1.9,24.86,9.33,1.209,-1.482,98.6077,-4.247,-3.232,97.5,0,109.3,13.72,-3.51,346.9
"2010-11-12 01:12:00",328765,2.714,9.85,9.73,1.046,1.204,98.61111,-4.238,-3.034,97.7,0,109.3,13.72,-3.50,331.9
"2010-11-12 01:12:30",328766,2.776,9.16,10.42,0.893,1.434,98.60828,-4.246,-3.095,97.7,0,109.3,13.72,-3.51,331.2
"2010-11-12 01:13:00",328767,2.348,358.8,10.7,1.078,0.009,98.60658,-4.25,-3.22,97.6,0,109.3,13.72,-3.51,320.8
"2010-11-12 01:13:30",328768,1.663,355.1,6.588,1.191,-1.442,98.606,-4.251,-3.217,97.5,0,109.3,13.72,-3.51,317.1
"2010-11-12 01:14:00",328769,0.766,357,6.779,0.5,-3.13,98.60545,-4.253,-3.338,97.4,0,109.3,13.72,-3.52,319.0
"2010-11-12 01:14:30",328770,1.624,357.8,9.05,1.128,-1.376,98.60545,-4.253,-3.232,97.5,0,109.3,13.72,-3.52,319.8
"2010-11-12 01:15:00",328771,1.279,4.085,14.16,1.158,-1.35,98.60545,-4.253,-3.213,97.6,0,109.3,13.72,-3.52,326.1
"2010-11-12 01:15:30",328772,1.914,18.4,15.71,1.446,-0.297,98.60545,-4.253,-3.129,97.6,0,109.3,13.72,-3.52,340.4
"2010-11-12 01:16:00",328773,2.381,16.66,17.54,1.154,0.403,98.60545,-4.253,-3.13,97.7,0,109.3,13.72,-3.52,338.7
"2010-11-12 01:16:30",328774,1.863,17.06,13.56,1.307,-0.129,98.60545,-4.253,-3.08,97.7,0,109.3,13.72,-3.52,339.1
"2010-11-12 01:17:00",328775,1.166,12.94,14.17,1.145,-2.094,98.60545,-4.253,-3.337,97.4,0,109.3,13.72,-3.52,334.9
"2010-11-12 01:17:30",328776,0.471,9.06,11.86,0.274,-3.736,98.60545,-4.253,-3.344,97.5,0,109.3,13.75,-3.52,331.1
"2010-11-12 01:18:00",328777,1.667,13.29,7.725,1.247,-1.683,98.60573,-4.252,-3.199,97.6,0,109.3,13.72,-3.52,335.3
"2010-11-12 01:18:30",328778,1.112,9.86,13.12,1.028,-1.513,98.60629,-4.251,-3.225,97.6,0,109.3,13.73,-3.51,331.9
"2010-11-12 01:19:00",328779,2.207,25.93,11.54,1.182,-0.235,98.60658,-4.25,-3.208,97.6,0,109.3,13.73,-3.51,347.9
"2010-11-12 01:19:30",328780,2.774,34.2,11.71,1.2,0.244,98.60941,-4.243,-3.088,97.7,0,109.3,13.72,-3.51,356.2
"2010-11-12 01:20:00",328781,3.389,47.99,6.672,0.674,0.994,98.6097,-4.242,-3.076,97.7,0,109.3,13.72,-3.50,10.0
"2010-11-12 01:20:30",328782,1.855,43.16,7.563,1.238,-1.868,98.60998,-4.241,-3.187,97.6,0,109.3,13.72,-3.50,5.2
"2010-11-12 01:21:00",328783,2.265,43.42,5.745,1.214,-1.867,98.60856,-4.245,-3.289,97.5,0,109.3,13.71,-3.51,5.4
"2010-11-12 01:21:30",328784,1.694,37.78,3.785,0.943,-1.735,98.60799,-4.246,-3.205,97.6,0,109.3,13.71,-3.51,359.8
"2010-11-12 01:22:00",328785,1.784,35.92,7.217,1.208,-1.833,98.61054,-4.24,-3.285,97.5,0,109.3,13.71,-3.50,357.9
"2010-11-12 01:22:30",328786,2.492,35.34,6.569,1.173,0.402,98.61281,-4.234,-3.109,97.7,0,109.3,13.71,-3.50,357.3
"2010-11-12 01:23:00",328787,2.964,37.54,9.18,1.191,0.35,98.61338,-4.233,-3.115,97.7,0,109.3,13.71,-3.50,359.5
"2010-11-12 01:23:30",328788,2.65,33.38,5.154,1.208,-0.011,98.61394,-4.231,-3.081,97.7,0,109.3,13.71,-3.49,355.4
"2010-11-12 01:24:00",328789,1.716,19.03,12.84,0.942,-0.79,98.61394,-4.231,-3.178,97.6,0,109.3,13.71,-3.49,341.0
"2010-11-12 01:24:30",328790,1.77,20.75,9.84,1.224,-1.263,98.61508,-4.228,-3.194,97.6,0,109.3,13.71,-3.49,342.8
"2010-11-12 01:25:00",328791,1.592,19.04,7.316,1.113,-2.234,98.61649,-4.225,-3.281,97.5,0,109.3,13.71,-3.49,341.0
"2010-11-12 01:25:30",328792,1.569,29.09,8.09,0.755,-2.178,98.61508,-4.228,-3.178,97.6,0,109.3,13.72,-3.49,351.1
"2010-11-12 01:26:00",328793,2.813,39.47,6.752,1.096,0.299,98.60856,-4.245,-3.108,97.7,0,109.3,13.72,-3.51,1.5
"2010-11-12 01:26:30",328794,2.675,39.19,6.486,1.191,0.269,98.60545,-4.253,-3.121,97.7,0,109.3,13.72,-3.52,1.2
"2010-11-12 01:27:00",328795,2.653,40.87,7.652,1.178,-0.629,98.60545,-4.253,-3.122,97.7,0,109.3,13.72,-3.52,2.9
"2010-11-12 01:27:30",328796,2.432,41.77,6.137,1.155,-1.495,98.60516,-4.254,-3.154,97.7,0,109.3,13.72,-3.52,3.8
"2010-11-12 01:28:00",328797,2.933,41.71,5.483,1.137,-0.3,98.59212,-4.287,-3.175,97.6,0,109.3,13.72,-3.55,3.7
"2010-11-12 01:28:30",328798,3.026,41.93,6.861,1.267,0.003,98.58134,-4.314,-3.261,97.5,0,109.3,13.72,-3.58,3.9
"2010-11-12 01:29:00",328799,3.098,36.9,7.345,1.107,0.449,98.57823,-4.322,-3.171,97.7,0,109.3,13.72,-3.59,358.9
"2010-11-12 01:29:30",328800,3.199,36.66,5.934,1.101,-0.071,98.57964,-4.319,-3.244,97.6,0,109.3,13.72,-3.58,358.7
"2010-11-12 01:30:00",328801,2.288,30.81,6.889,1.119,-1.726,98.58447,-4.306,-3.213,97.6,0,109.3,13.72,-3.57,352.8
"2010-11-12 01:30:30",328802,2.694,37.37,6.108,1.17,0.243,98.59637,-4.276,-3.167,97.7,0,109.3,13.72,-3.54,359.4
"2010-11-12 01:31:00",328803,1.747,35.92,5.894,1.051,-2.406,98.60316,-4.259,-3.384,97.5,0,109.3,13.72,-3.52,357.9
"2010-11-12 01:31:30",328804,2.102,42.32,6.168,1.212,-1.783,98.60289,-4.259,-3.256,97.6,0,109.3,13.72,-3.52,4.3
"2010-11-12 01:32:00",328805,2.605,49.54,8.28,1.24,-0.249,98.60545,-4.253,-3.121,97.7,0,109.3,13.72,-3.52,11.5
"2010-11-12 01:32:30",328806,1.682,44.8,7.135,0.983,-2.394,98.60545,-4.253,-3.255,97.6,0,109.3,13.72,-3.52,6.8
"2010-11-12 01:33:00",328807,2.622,44.25,8.56,1.243,-0.637,98.60545,-4.253,-3.23,97.6,0,109.3,13.72,-3.52,6.2
"2010-11-12 01:33:30",328808,2.875,30.42,6.913,1.132,0.134,98.60545,-4.253,-3.142,97.7,0,109.3,13.72,-3.52,352.4
"2010-11-12 01:34:00",328809,1.577,25.98,4.798,1.082,-1.751,98.60545,-4.253,-3.306,97.6,0,109.3,13.72,-3.52,348.0
"2010-11-12 01:34:30",328810,2.224,35.71,7.87,1.099,-0.374,98.60715,-4.249,-3.162,97.7,0,109.3,13.72,-3.51,357.7
"2010-11-12 01:35:00",328811,3.108,46.96,6.902,1.114,-0.451,98.61224,-4.236,-3.129,97.7,0,109.3,13.72,-3.50,9.0
"2010-11-12 01:35:30",328812,3.55,47.7,5.846,1.109,0.053,98.61224,-4.236,-3.194,97.7,0,109.3,13.72,-3.50,9.7
"2010-11-12 01:36:00",328813,2.782,44.34,5.572,1.195,-0.884,98.60828,-4.246,-3.251,97.6,0,109.3,13.72,-3.51,6.3
"2010-11-12 01:36:30",328814,3.135,42.96,5.961,1.1,0.386,98.60856,-4.245,-3.07,97.8,0,109.3,13.72,-3.51,5.0
"2010-11-12 01:37:00",328815,2.759,41.47,6.837,1.181,-0.099,98.60658,-4.25,-3.131,97.8,0,109.3,13.71,-3.51,3.5
"2010-11-12 01:37:30",328816,2.154,37.41,6.526,1.28,-1.33,98.60686,-4.249,-3.252,97.6,0,109.3,13.71,-3.51,359.4
"2010-11-12 01:38:00",328817,2.697,42.67,5.631,1.197,0.432,98.6097,-4.242,-3.085,97.8,0,109.3,13.71,-3.50,4.7
"2010-11-12 01:38:30",328818,2.084,41.16,6.897,1.243,-0.652,98.61054,-4.24,-3.191,97.7,0,109.3,13.71,-3.50,3.2
"2010-11-12 01:39:00",328819,1.345,38.21,6.232,1.027,-2.164,98.60912,-4.244,-3.275,97.6,0,109.3,13.71,-3.51,0.2
"2010-11-12 01:39:30",328820,3.092,50.72,6.346,0.959,0.146,98.61281,-4.234,-3.137,97.7,0,109.3,13.71,-3.50,12.7
"2010-11-12 01:40:00",328821,2.433,45.56,7.713,1.222,-0.744,98.61337,-4.233,-3.11,97.8,0,109.3,13.71,-3.50,7.6
"2010-11-12 01:40:30",328822,1.521,46.44,6.359,0.992,-1.727,98.61394,-4.231,-3.072,97.8,0,109.3,13.71,-3.49,8.4
"2010-11-12 01:41:00",328823,2.696,54.68,6.383,1.169,-0.258,98.61706,-4.223,-3.112,97.7,0,109.3,13.71,-3.49,16.7
"2010-11-12 01:41:30",328824,1.942,48.27,5.814,1.113,-1.782,98.62103,-4.213,-3.175,97.7,0,109.3,13.71,-3.48,10.3
"2010-11-12 01:42:00",328825,1.537,43.24,2.523,0.235,-3.352,98.63208,-4.185,-3.258,97.6,0,109.3,13.75,-3.45,5.2
"2010-11-12 01:42:30",328826,3.13,48.3,5.929,1.177,-0.115,98.63917,-4.167,-3.085,97.8,0,109.3,13.72,-3.43,10.3
"2010-11-12 01:43:00",328827,3.793,54.17,6.823,1.087,0.637,98.63945,-4.166,-3.04,97.8,0,109.4,13.72,-3.43,16.2
"2010-11-12 01:43:30",328828,4.08,59,4.496,0.672,1.774,98.63945,-4.166,-3.031,97.9,0,109.3,13.72,-3.43,21.0
"2010-11-12 01:44:00",328829,3.81,47.96,6.501,1.089,0.676,98.63889,-4.168,-3.073,97.8,0,109.3,13.72,-3.43,10.0
"2010-11-12 01:44:30",328830,2.704,43.45,6.369,1.117,-1.437,98.63322,-4.182,-3.153,97.7,0,109.3,13.71,-3.44,5.5
"2010-11-12 01:45:00",328831,2.987,43.75,6.018,1.212,-1.152,98.62613,-4.2,-3.18,97.7,0,109.3,13.72,-3.46,5.8
"2010-11-12 01:45:30",328832,3.175,43.72,5.967,1.209,-0.741,98.62273,-4.209,-3.141,97.7,0,109.3,13.72,-3.47,5.7
"2010-11-12 01:46:00",328833,3.72,45.38,6.153,1.132,0.831,98.6216,-4.212,-3.049,97.9,0,109.3,13.72,-3.47,7.4
"2010-11-12 01:46:30",328834,4.583,47.66,3.336,0.636,1.709,98.61791,-4.221,-3.073,97.8,0,109.3,13.72,-3.48,9.7
"2010-11-12 01:47:00",328835,3.835,47.04,7.036,1.236,0.091,98.61536,-4.228,-3.089,97.8,0,109.3,13.72,-3.49,9.0